Regional Weather Roundup
Issued by NWS

Home | Current Version | Previous Version | Graphics & Text | Print | Product List | Glossary On
Versions: 1 2 3 4 5 6 7 8 9 10 11 12 13 14 15 16 17 18 19 20 21 22 23 24 25 26 27 28 29 30 31 32 33 34 35 36 37 38 39 40 41 42 43 44 45 46 47 48 49 50
000
ASUS45 KBOU 041207
RWRCO

WEATHER ROUNDUP FOR COLORADO
NATIONAL WEATHER SERVICE DENVER/BOULDER CO
500 AM MST SUN DEC 04 2016

NOTE: "FAIR" INDICATES FEW OR NO CLOUDS BELOW 12000 FEET WITH NO
SIGNIFICANT WEATHER AND/OR OBSTRUCTIONS TO VISIBILITY.

COZ001>005-013-030-031-041300-
...NORTHWEST COLORADO...

CITY           SKY/WX    TMP DP  RH WIND       PRES   REMARKS
CRAIG          FAIR       6   2  83 CALM      30.17F
HAYDEN         FAIR      12   7  79 E6        30.14S WCI   3
MEEKER         FAIR       3  -1  83 N5        30.17F WCI  -6
MOUNT WERNER   NOT AVBL
STEAMBOAT SPGS FAIR      11   9  91 E5        30.14F WCI   3
WALDEN           N/A     14   9  79 S14G20    30.05F WCI  -1
$$

COZ006>008-011-041300-
...WEST CENTRAL VALLEYS...

CITY           SKY/WX    TMP DP  RH WIND       PRES   REMARKS
GRAND JUNCTION FAIR      21  14  74 CALM      30.21F
MONTROSE       FAIR      14   9  80 SE7       30.25S WCI   4
EAGLE          FAIR       5   0  79 CALM      30.23F
RIFLE          FAIR      13  10  88 E5        30.24F WCI   5
DELTA          FAIR      19  14  82 CALM      30.25S
NUCLA          FAIR      14   9  79 SE9       30.23R WCI   2
$$

COZ017>023-064>068-041300-
...SOUTHWEST COLORADO...

CITY           SKY/WX    TMP DP  RH WIND       PRES   REMARKS
DURANGO        FAIR      16  11  80 NE3       30.13S
CORTEZ         FAIR      14   9  80 E8        30.16R WCI   3
PAGOSA SPRINGS FAIR      12  10  92 CALM      30.12S
TELLURIDE      FAIR      14   4  63 SE6       30.14S WCI   5
WOLF CREEK PAS FAIR      19  -8  30 CALM      30.14S
$$

COZ009-010-012-014-032>034-037-058>063-041300-
...CENTRAL COLORADO...

CITY           SKY/WX    TMP DP  RH WIND       PRES   REMARKS
ASPEN          FAIR       6   1  80 SW7       30.14F WCI  -6
BUENA VISTA    FAIR       5  -1  74 CALM      30.06R
COPPER MTN     FAIR      10  -9  40 MISG      30.04R
BERTHOUD PASS  FAIR       0 -11  60 NW32G45   29.92R WCI -27
COTTONWOOD PAS FAIR      21  -8  27 CALM      30.02R
GUNNISON       FAIR      -2  -5  87 CALM      30.21S
KREMMLING      FAIR      10   5  79 CALM      30.16S
LEADVILLE      FAIR       6  -7  54 N9        30.06R WCI  -8
MONARCH PASS     N/A      5   1  85 W35G44    30.10S WCI -20
SALIDA         FAIR      14   4  65 N8        30.13S WCI   3
SUNLIGHT       FAIR       9   5  85 SW13      30.13S WCI  -7
WILKERSON PASS FAIR      14 -15  26 W6        30.00F WCI   5
$$

COZ069>075-041300-
...SAN LUIS VALLEY/SANGRE DE CRISTO MOUNTAINS...

CITY           SKY/WX    TMP DP  RH WIND       PRES   REMARKS
ALAMOSA        FAIR      -4  -9  79 SW6       30.12F WCI -16
LA VETA PASS   FAIR       9   3  78 NE30G36   30.00S WCI -14
SAGUACHE       FAIR      16   5  62 N9        30.11R WCI   4
$$

COZ035-036-038>040-041300-
...NORTHERN COLORADO FRONT RANGE...

CITY           SKY/WX    TMP DP  RH WIND       PRES   REMARKS
DENVER INTL AP FAIR      20   6  55 SW10      30.00R WCI   9
DMNS CITY PARK   N/A     21   8  57 S7        30.00S WCI  12
AURORA         CLEAR     20   5  53 S10       30.01R WCI   9
FRONT RANGE AP FAIR      19   9  63 S5        30.01S WCI  13
ERIE MUNI ARPT FAIR      14   8  76 CALM      29.99S
BOULDER MUN AP FAIR      28   9  43 CALM      29.98F
CENTENNIAL     FAIR      17   6  62 SE8       30.00R WCI   7
BROOMFIELD     FAIR      30   7  37 CALM      29.99S
FORT COLLINS   FAIR      19  16  86 SW6       30.00F WCI  11
LONGMONT       FAIR      17   9  69 SW3       30.01F
$$

COZ041-046-047-076>085-087-088-041300-
...PIKES PEAK/PALMER DIVIDE AND SOUTHERN FOOTHILLS...

CITY           SKY/WX    TMP DP  RH WIND       PRES   REMARKS
COLO. SPRINGS  FAIR      15   6  67 NE6       30.02F WCI   6
A. F. ACADEMY  FAIR      12   4  70 NE8       30.00F WCI   0
SCHRIEVER AFB  NOT AVBL
ELLICOTT       FAIR     N/A N/A N/A CALM        N/A
FALCON         FAIR      16   6  66 CALM      30.01S
FORT CARSON    FAIR      15   7  71 N5        30.00F WCI   7
LIMON          FAIR       5   1  83 N5        30.03F WCI  -4
MONUMENT HILL  FAIR      16   5  62 S9        30.00S WCI   4
TRINIDAD       FAIR      19  11  70 W15       30.05F WCI   5
$$

COZ042>045-048>051-090-091-041300-
...NORTHEAST COLORADO...

CITY           SKY/WX    TMP DP  RH WIND       PRES   REMARKS
GREELEY ARPT   FAIR      10   5  80 CALM      30.01F
AKRON          FAIR      24  10  55 W8        30.01R WCI  15
BURLINGTON     FAIR      18   9  68 W12       30.03S WCI   5
WRAY           FAIR      19  14  79 W7        30.03S WCI  10
STERLING       FAIR      27  14  59 N12       30.00F WCI  16
HOLYOKE        FAIR      25  14  63 W8        30.02R WCI  16
FORT MORGAN    FAIR      14   9  78 W7        30.02F WCI   4
$$

COZ086-089-092>099-041300-
...SOUTHEAST COLORADO...

CITY           SKY/WX    TMP DP  RH WIND       PRES   REMARKS
PUEBLO         FAIR      10   6  84 W6        30.05F WCI   0
LA JUNTA       FAIR      19  13  77 W10       30.06F WCI   7
LAMAR          MIX PCPN  15  11  83 SW10      30.07F WCI   2
SPRINGFIELD      N/A     16  14  92 NW10      30.06S WCI   4
$$



USA.gov is the U.S. government's official web portal to all federal, state and local government web resources and services.